STARLINK-32845, 62815

Orbit data source: Space-Track

STARLINK-32845, 62815 is a payload satellite owned by SpaceX/Seattle (US) in LEO that was launched on Fri, 24 Jan 2025 UTC via an FALCON 9 launch vehicle from the Air Force Western Test Range (AFWTR). Payload-class satellites include a variety of spacecraft equipped with specific instruments for various scientific and technological missions. These include communications satellites like Starlink; space stations such as the ISS; scientific satellites like the Hubble; Earth observation satellites from companies like Planet Labs, Umbra, and HawkEye 360; GPS; miniature CubeSats for education and research; and military/defense satellites.

Loading next visibility...
Identifier
62815, 2025-018K
Orbit
LEO
Last TLE update
9 hours ago
Origin
Manufacturer
SpaceX/Seattle
Mission
Operational Commercial Communications
Bus & Motor
STARLINK V2M, Unknown motor
Mass
730 kg wet, ~700 kg dry
Launch date (UTC)
2025-01-24 (6 months ago)
Launch vehicle
FALCON 9
Launch site
Air Force Western Test Range (AFWTR)
Object type
Payload
Rocket body
Debris
Shape & HBR
Box + 2 Pan, 29 m
Radar Cross Section
33.884 m², Large (>1 m²)

Expand to show TLE details & history

TLE from 9 hours ago
0 STARLINK-32845
1 62815U 25018K   25191.71229767  .00009204  00000-0  32251-3 0  9998
2 62815  53.1618 353.3431 0001276  87.6059 272.5088 15.30199870 26767
Epoch: 2025-07-10T17:05Z
TLE epoch observation values (Epoch: 2025-07-10T17:05:42.518Z)
Latitude
-0.00002°
Longitude
168.04128°
Altitude
476.077 km
Speed
7.629 km/s
True Right ascension
23h 33m 22s
True Declination
0° 00' 00"
Sunlit
Object was in full shadow at epoch
Visualization orbit readout
Latitude
-48.13382°
Longitude
42.54818°
Altitude
492.516 km
Speed
7.618 km/s
Apparent Right ascension
21h 44m 59s
Apparent Declination
-82° 47' 30"
Sunlit
Object is in full shadow
Visualization observer readout
Local Sidereal Time
14:17:15
Azimuth
170.951° S
Elevation
-42.264°
Doppler factor
1
Orbital elements
Apogee altitude
476.346 km
Perigee altitude
474.597 km
Semi-major axis
6,853.609 km
Eccentricity
0.00013
Inclination
53.1618°
RAAN
353.3431°
Arg. of periapsis
87.6059°
True anomaly
Unknown
Mean anomaly
272.5088°
Eccentric anomaly
Unknown
Mean motion
3.82529 °/min
Orbital period
94.11 mins
BSTAR
0.00032251
Loading maneuver chart data...
Loading SW <> Apogee altitude chart data...
Loading historical data...
Loading historical data...
Loading historical data...
Loading historical data...
Loading historical data...
Loading historical data...
Loading historical data...

STARLINK-32845 Visibility forecast

Observer location: undefined°, undefined°

Span
Click to sort rows by Start time (UTC) header in descending order
Start Az.
Max El. time (UTC)
Max El. Az.
Max El.
End time (UTC)
End Az.
5 mins2025-07-11 13:40:45.574Z239.314° WSW2025-07-11 13:42:45.574Z349.349° N43.77°2025-07-11 13:45:45.574Z46.439° ENE
4 mins2025-07-11 18:37:45.574Z350.859° N2025-07-11 18:39:45.574Z31.578° NE17.125°2025-07-11 18:41:45.574Z65.69° ENE
5 mins2025-07-11 20:15:45.574Z310.502° NW2025-07-11 20:17:45.574Z123.327° SE44.893°2025-07-11 20:20:45.574Z130.746° SE
|